Location: Unspecified
(0.0000°N, 0.0000°E)
Time: 18:01:56
(UTC+00:00)

COSMOS 2498 - Pass Details

Date: 22 May 2026
Orbit: 1476 x 1512 km, 82.4° (Epoch: 10 June)

Event Time Altitude Azimuth Distance (km) Brightness Sun altitude
Rises 04:05:12 0° 358° (N) 4,580 ? -26.0°
Reaches altitude 10° 04:08:04 10° 359° (N) 3,604 ? -25.3°
Maximum altitude 04:16:44 84° 86° (E) 1,493 ? -23.3°
Drops below altitude 10° 04:25:29 10° 174° (S) 3,636 ? -21.3°
Sets 04:28:22 0° 175° (S) 4,623 ? -20.6°
